Location: Ab? ar R?sh Ba?r?
(24.1861°N, 32.8847°E)
Time: 22:44:54
(UTC+00:00)

Cosmos 724 - Pass Details

Date: 24 October 2021
Orbit: 857 x 937 km, 65.6° (Epoch: 04 December)

Event Time Altitude Azimuth Distance (km) Brightness Sun altitude
Rises 16:07:33 0° 337° (NNW) 3,483 7.6 -12.7°
Reaches altitude 10° 16:10:04 10° 339° (NNW) 2,530 6.8 -13.3°
Maximum altitude 16:15:55 77° 65° (ENE) 890 4.2 -14.6°
Drops below altitude 10° 16:21:40 10° 152° (SSE) 2,485 6.4 -15.9°
Sets 16:24:07 0° 153° (SSE) 3,416 7.2 -16.5°
